Regional Weather Roundup
Issued by NWS

Home | Current Version | Previous Version | Text Only | Print | Product List | Glossary On
Versions: 1 2 3 4 5 6 7 8 9 10 11 12 13 14 15 16 17 18 19 20 21 22 23 24 25 26 27 28 29 30 31 32 33 34 35 36 37 38 39 40 41 42 43 44 45 46 47 48 49 50
000
ASUS45 KBOU 102110
RWRCO

WEATHER ROUNDUP FOR COLORADO
NATIONAL WEATHER SERVICE DENVER/BOULDER CO
300 PM MDT THU JUL 10 2014

NOTE: "FAIR" INDICATES FEW OR NO CLOUDS BELOW 12000 FEET WITH NO
SIGNIFICANT WEATHER AND/OR OBSTRUCTIONS TO VISIBILITY.

COZ001>005-013-030-031-102200-
...NORTHWEST COLORADO...

CITY           SKY/WX    TMP DP  RH WIND       PRES   REMARKS
CRAIG          MOSUNNY   81  49  32 W7        30.10F
HAYDEN         MOSUNNY   82  45  26 W9        30.13F
MEEKER         LGT RAIN  76  50  40 NW7       30.13F
MOUNT WERNER   MOSUNNY   66  39  37 SW8       30.48F
STEAMBOAT SPGS MOSUNNY   81  48  31 S3        30.16F
WALDEN         PTSUNNY   77  41  27 SW10G25   30.24F
$$

COZ006>008-011-102200-
...WEST CENTRAL VALLEYS...

CITY           SKY/WX    TMP DP  RH WIND       PRES   REMARKS
GRAND JUNCTION MOSUNNY   91  50  24 W10       29.99F
MONTROSE       MOSUNNY   90  46  21 W7        30.06F
EAGLE          MOSUNNY   84  43  23 W12G18    30.11F
RIFLE          PTSUNNY   85  47  26 NE6       30.04F
DELTA          MOSUNNY   93  46  19 W8        30.02F
NUCLA          MOSUNNY   88  45  22 N5        30.11F
$$

COZ017>023-064>068-102200-
...SOUTHWEST COLORADO...

CITY           SKY/WX    TMP DP  RH WIND       PRES   REMARKS
DURANGO        PTSUNNY   80  47  31 N12       30.15F
CORTEZ         SUNNY     85  49  28 CALM      30.10F
PAGOSA SPRINGS MOSUNNY   80  40  24 SE7       30.24S
TELLURIDE      CLOUDY    63  50  63 CALM      30.36F
WOLF CREEK PAS NOT AVBL
$$

COZ009-010-012-014-032>034-037-058>063-102200-
...CENTRAL COLORADO...

CITY           SKY/WX    TMP DP  RH WIND       PRES   REMARKS
ASPEN          PTSUNNY   80  43  26 NW8G21    30.20F
BUENA VISTA    CLOUDY    76  38  25 W13G21    30.23F
COPPER MTN     PTSUNNY   61  39  44 S8        30.59S THUNDER
BERTHOUD PASS  TSTM      43  30  61 SE12      30.66R
COTTONWOOD PAS PTSUNNY   64  43  45 W8        30.40F
GUNNISON       MOSUNNY   81  43  26 N10       30.23F
KREMMLING      MOSUNNY   84  34  16 W7        30.17F
LEADVILLE      CLOUDY    62  41  46 NE12      30.40R
MONARCH PASS   CLOUDY    64  37  36 SW10G16   30.67F
SALIDA         PTSUNNY  N/A N/A N/A CALM      30.23F
SUNLIGHT       PTSUNNY   68  46  45 CALM      30.49F
WILKERSON PASS CLOUDY    61  36  39 CALM      30.55R
$$

COZ069>075-102200-
...SAN LUIS VALLEY/SANGRE DE CRISTO MOUNTAINS...

CITY           SKY/WX    TMP DP  RH WIND       PRES   REMARKS
ALAMOSA        SUNNY     82  43  25 VRB7      30.19F
LA VETA PASS   PTSUNNY   75  37  25 NE7       30.43F
SAGUACHE       NOT AVBL
$$

COZ035-036-038>040-102200-
...NORTHERN COLORADO FRONT RANGE...

CITY           SKY/WX    TMP DP  RH WIND       PRES   REMARKS
DENVER INTL AP MOSUNNY   94  41  16 E13G21    30.00F
DMNS CITY PARK   N/A     92  42  17 E8G14     29.99F
AURORA         MOSUNNY   91  47  21 E8        30.03F
FRONT RANGE AP NOT AVBL
ERIE MUNI ARPT PTSUNNY   93  37  14 SE3       29.98F
BOULDER MUN AP PTSUNNY   91  45  19 W9        30.00F
CENTENNIAL     MOSUNNY   92  37  14 N7        30.03F
BROOMFIELD     MOSUNNY   90  39  17 SE6       30.04F
FORT COLLINS   MOSUNNY   93  48  21 SE15G21   29.95F
LONGMONT       MOSUNNY   92  41  16 SW9       29.99F
$$

COZ041-046-047-076>085-087-088-102200-
...PIKES PEAK/PALMER DIVIDE AND SOUTHERN FOOTHILLS...

CITY           SKY/WX    TMP DP  RH WIND       PRES   REMARKS
COLO. SPRINGS  MOSUNNY   90  37  15 S14G25    30.08F
A. F. ACADEMY  MOSUNNY   85  41  21 S15       30.10F
ELLICOTT       NOT AVBL
FALCON         MOSUNNY   89  34  14 S15G24    30.15F
FORT CARSON    MOSUNNY   91  40  17 S12       30.05F
LIMON          SUNNY     92  43  18 SE13G20   30.02F
MONUMENT HILL  MOSUNNY   86  34  15 S15       30.14F
TRINIDAD       MOSUNNY   95  37  13 VRB7      30.03F
$$

COZ042>045-048>051-090-091-102200-
...NORTHEAST COLORADO...

CITY           SKY/WX    TMP DP  RH WIND       PRES   REMARKS
GREELEY ARPT   NOT AVBL
AKRON          SUNNY     92  47  21 SE12G25   29.97F
BURLINGTON     SUNNY     90  61  37 SE15      29.96F
WRAY           SUNNY     97  55  24 SE12G17   29.92F
STERLING       SUNNY     99  54  22 SW10      29.90F
HOLYOKE        SUNNY     95  59  30 S10G18    29.91F
FORT MORGAN    SUNNY     96  43  16 SE9       29.96F
$$

COZ086-089-092>099-102200-
...SOUTHEAST COLORADO...

CITY           SKY/WX    TMP DP  RH WIND       PRES   REMARKS
PUEBLO         MOSUNNY   97  40  14 SE15      29.94F
LA JUNTA       SUNNY     98  40  13 E9        29.92F
LAMAR          SUNNY    101  40  12 VRB3      29.87F
SPRINGFIELD      N/A     95  49  20 S20G33    29.96F
$$


USA.gov is the U.S. government's official web portal to all federal, state and local government web resources and services.